Home > Weather > Knittelfeld > Past weeks

Flag for Austria Weather for the Past 2 Weeks in Knittelfeld, Styria, Austria

Now
61 °F

Scattered clouds.


Feels Like: 61 °F
Forecast: 38 / 67 °F
Wind: 3 mph from North

Location: Zeltweg

Current Time: May 5, 2016 at 2:58:35 PM

Latest Report: May 5, 2016 at 2:20 PM


Visibility: 19 mi

Pressure: 30.21 "Hg (28.01 "Hg at 641m altitude)

Humidity: 52%

Dew Point: 43 °F

Location of KnittelfeldLocation

Historic Weather in Knittelfeld — Graph

°F

Knittelfeld Temperature Yesterday

Maximum temperature yesterday: 54 °F (at 3:20 PM)
Minimum temperature yesterday: 45 °F (at 5:50 AM)
Average temperature yesterday: 50 °F

High & Low Weather Summary for the Past Weeks

 TemperatureHumidityPressure
High70 °F (Apr 22, 3:50 PM)100% (Apr 27, 8:20 AM)30.33 "Hg (Apr 27, 8:20 AM)
Low23 °F (Apr 26, 4:50 AM)25% (Apr 22, 3:50 PM)29.59 "Hg (Apr 23, 10:50 PM)
Average46 °F67%29.98 "Hg
* Reported Apr 20 1:20 PM — May 5 1:20 PM, Knittelfeld, Weather by CustomWeather, © 2016

Note: Actual official high and low records may vary slightly from our data, if they occured in-between our weather recording intervals... More about our weather records

Advertising

Knittelfeld Weather History for the Previous 24 Hours

Scroll right to see more
 ConditionsComfort  
Time TempWeatherWind HumidityBarometerVisibility
1:20 PM
Thu, May 5
55 °FScattered clouds.3 mph59%30.24 "Hg19 mi
12:50 PM54 °FPartly sunny.5 mph63%30.24 "Hg19 mi
12:20 PM54 °FPartly sunny.2 mph58%30.24 "Hg19 mi
11:50 AM52 °FPartly sunny.3 mph67%30.27 "Hg19 mi
11:20 AM50 °FScattered clouds.2 mph67%30.27 "Hg19 mi
10:50 AM48 °FPartly sunny.2 mph66%30.27 "Hg19 mi
10:20 AM48 °FBroken clouds.2 mph66%30.27 "Hg19 mi
9:50 AM46 °FBroken clouds.2 mph71%30.27 "Hg19 mi
9:20 AM45 °FPartly sunny.1 mph81%30.27 "Hg19 mi
8:50 AM43 °FBroken clouds.1 mph87%30.27 "Hg12 mi
8:20 AM43 °FBroken clouds.1 mph87%30.27 "Hg12 mi
7:50 AM43 °FSprinkles. Partly sunny.1 mph81%30.27 "Hg12 mi
6:50 AM41 °FPartly sunny.1 mph87%30.27 "Hg12 mi
5:50 AM41 °FOvercast.1 mph81%30.27 "Hg12 mi
4:50 AM41 °FOvercast.1 mph87%30.24 "Hg9 mi
10:50 PM
Wed, May 4
45 °FOvercast.1 mph66%30.24 "Hg9 mi
9:50 PM46 °FOvercast.3 mph62%30.24 "Hg9 mi
8:50 PM46 °FBroken clouds.3 mph57%30.24 "Hg12 mi
7:50 PM48 °FPartly sunny.5 mph54%30.21 "Hg19 mi
6:50 PM50 °FBroken clouds.5 mph50%30.18 "Hg19 mi
5:50 PM50 °FPartly sunny.10 mph50%30.18 "Hg19 mi
4:50 PM52 °FBroken clouds.13 mph47%30.18 "Hg19 mi
4:20 PM52 °FBroken clouds.16 mph47%30.18 "Hg19 mi
3:50 PM50 °FPartly sunny.20 mph54%30.18 "Hg19 mi
3:20 PM54 °FPartly sunny.12 mph51%30.18 "Hg19 mi
2:50 PM52 °FPartly sunny.10 mph44%30.18 "Hg19 mi
2:20 PM52 °FPartly sunny.8 mph47%30.18 "Hg19 mi
Weather by CustomWeather, © 2016

See weather overviewHow to use our weather pages